[Date Prev][Date Next][Thread Prev][Thread Next] - [Date Index][Thread Index][Author Index]
2 Line ISS Keps 6-10
- Subject: [sarex] 2 Line ISS Keps 6-10
- From: "Dave Larsen PhD" <doc@xxxxxxxxxxx>
- Date: Mon, 10 Jun 2002 03:53:47 -0700
ISS
1 25544U 98067A 02161.16576569 .00022785 00000-0 27319-3 0 5473
2 25544 51.6363 88.1781 0005589 165.7098 334.4614 15.60811293202939
----
Via the sarex mailing list at AMSAT.ORG courtesy of AMSAT-NA.
To unsubscribe, send "unsubscribe sarex" to Majordomo@amsat.org
AMSAT Home